Time,TemperatureF,DewpointF,PressureIn,WindDirection,WindDirectionDegrees,WindSpeedMPH,WindSpeedGustMPH,Humidity,HourlyPrecipIn,Conditions,Clouds,dailyrainin,SoftwareType,DateUTC
2013-06-18 00:01:00,72.9,66.7,29.91,East,90,1.1,1.1,81,0.00,CLR,,0.00,WeatherDisplay:10.37,2013-06-18 04:01:00,
2013-06-18 00:02:00,72.9,66.7,29.91,East,90,1.1,0.0,81,0.00,CLR,,0.00,WeatherDisplay:10.37,2013-06-18 04:02:00,
2013-06-18 00:07:00,72.7,66.5,29.91,East,90,0.0,0.0,81,0.00,CLR,,0.00,WeatherDisplay:10.37,2013-06-18 04:07:00,
2013-06-18 00:12:00,72.7,66.5,29.91,East,90,0.0,0.0,81,0.00,CLR,,0.00,WeatherDisplay:10.37,2013-06-18 04:12:00,
2013-06-18 00:17:00,72.5,66.7,29.91,East,90,0.0,0.0,82,0.00,CLR,,0.00,WeatherDisplay:10.37,2013-06-18 04:17:00,
2013-06-18 00:22:00,72.5,66.7,29.91,West,270,0.0,0.0,82,0.00,CLR,,0.00,WeatherDisplay:10.37,2013-06-18 04:22:00,
2013-06-18 00:27:00,72.5,66.7,29.90,North,0,0.0,0.0,82,0.00,CLR,,0.00,WeatherDisplay:10.37,2013-06-18 04:27:00,
2013-06-18 00:32:00,72.5,66.7,29.90,North,0,1.1,0.0,82,0.00,CLR,,0.00,WeatherDisplay:10.37,2013-06-18 04:32:00,
2013-06-18 00:37:00,72.3,66.5,29.90,East,90,1.1,0.0,82,0.00,CLR,,0.00,WeatherDisplay:10.37,2013-06-18 04:37:00,
2013-06-18 00:42:00,72.3,66.9,29.90,East,90,0.0,0.0,83,0.00,CLR,,0.00,WeatherDisplay:10.37,2013-06-18 04:42:00,
2013-06-18 00:47:00,72.3,67.2,29.90,SE,135,2.3,2.3,84,0.00,CLR,,0.00,WeatherDisplay:10.37,2013-06-18 04:47:00,
2013-06-18 00:52:00,72.1,67.4,29.90,SE,135,1.1,0.0,85,0.00,CLR,,0.00,WeatherDisplay:10.37,2013-06-18 04:52:00,
2013-06-18 00:57:00,72.1,67.0,29.90,SE,135,0.0,0.0,84,0.00,CLR,,0.00,WeatherDisplay:10.37,2013-06-18 04:57:00,
2013-06-18 01:02:00,72.0,66.9,29.90,SE,135,0.0,0.0,84,0.00,CLR,,0.00,WeatherDisplay:10.37,2013-06-18 05:02:00,
2013-06-18 01:07:00,71.8,67.0,29.90,SE,135,1.1,0.0,85,0.00,CLR,,0.00,WeatherDisplay:10.37,2013-06-18 05:07:00,
2013-06-18 01:12:00,71.8,67.4,29.90,West,270,1.1,0.0,86,0.00,CLR,,0.00,WeatherDisplay:10.37,2013-06-18 05:12:00,
2013-06-18 01:17:00,71.6,67.2,29.90,South,180,1.1,0.0,86,0.00,CLR,,0.00,WeatherDisplay:10.37,2013-06-18 05:17:00,
2013-06-18 01:22:00,71.6,67.5,29.89,NE,45,0.0,0.0,87,0.00,CLR,,0.00,WeatherDisplay:10.37,2013-06-18 05:22:00,
2013-06-18 01:27:00,71.4,67.3,29.90,SW,225,1.1,0.0,87,0.00,CLR,,0.00,WeatherDisplay:10.37,2013-06-18 05:27:00,
2013-06-18 01:32:00,71.4,67.3,29.89,SW,225,1.1,0.0,87,0.00,CLR,,0.00,WeatherDisplay:10.37,2013-06-18 05:32:00,
2013-06-18 01:37:00,71.2,67.2,29.90,SW,225,1.1,0.0,87,0.00,CLR,,0.00,WeatherDisplay:10.37,2013-06-18 05:37:00,
2013-06-18 01:42:00,71.2,67.2,29.90,NW,315,0.0,0.0,87,0.00,CLR,,0.00,WeatherDisplay:10.37,2013-06-18 05:42:00,
2013-06-18 01:47:00,71.2,67.5,29.89,East,90,1.1,1.1,88,0.00,CLR,,0.00,WeatherDisplay:10.37,2013-06-18 05:47:00,
2013-06-18 01:52:00,71.1,67.3,29.89,East,90,0.0,0.0,88,0.00,CLR,,0.00,WeatherDisplay:10.37,2013-06-18 05:52:00,
2013-06-18 01:57:00,71.1,67.3,29.88,East,90,0.0,0.0,88,0.00,CLR,,0.00,WeatherDisplay:10.37,2013-06-18 05:57:00,
2013-06-18 02:02:00,70.9,67.1,29.88,North,0,1.1,0.0,88,0.00,CLR,,0.00,WeatherDisplay:10.37,2013-06-18 06:02:00,
2013-06-18 02:07:00,70.9,67.5,29.88,North,0,0.0,0.0,89,0.00,CLR,,0.00,WeatherDisplay:10.37,2013-06-18 06:07:00,
2013-06-18 02:12:00,70.9,67.8,29.88,SW,225,1.1,0.0,90,0.00,CLR,,0.00,WeatherDisplay:10.37,2013-06-18 06:12:00,
2013-06-18 02:17:00,70.7,67.6,29.88,SW,225,0.0,0.0,90,0.00,CLR,,0.00,WeatherDisplay:10.37,2013-06-18 06:17:00,
2013-06-18 02:22:00,70.7,67.6,29.88,SW,225,0.0,0.0,90,0.00,CLR,,0.00,WeatherDisplay:10.37,2013-06-18 06:22:00,
2013-06-18 02:27:00,70.7,67.6,29.87,SW,225,0.0,0.0,90,0.00,CLR,,0.00,WeatherDisplay:10.37,2013-06-18 06:27:00,
2013-06-18 02:32:00,70.5,67.8,29.87,SW,225,0.0,0.0,91,0.00,CLR,,0.00,WeatherDisplay:10.37,2013-06-18 06:32:00,
2013-06-18 02:37:00,70.5,67.8,29.87,SW,225,0.0,0.0,91,0.00,CLR,,0.00,WeatherDisplay:10.37,2013-06-18 06:37:00,
2013-06-18 02:42:00,70.3,67.9,29.87,SW,225,0.0,0.0,92,0.00,CLR,,0.00,WeatherDisplay:10.37,2013-06-18 06:42:00,
2013-06-18 02:47:00,70.3,67.9,29.87,West,270,0.0,0.0,92,0.00,CLR,,0.00,WeatherDisplay:10.37,2013-06-18 06:47:00,
2013-06-18 02:52:00,70.2,67.7,29.87,West,270,1.1,0.0,92,0.00,CLR,,0.00,WeatherDisplay:10.37,2013-06-18 06:52:00,
2013-06-18 02:57:00,70.2,67.7,29.87,West,270,0.0,0.0,92,0.00,CLR,,0.00,WeatherDisplay:10.37,2013-06-18 06:57:00,
2013-06-18 03:02:00,70.0,67.9,29.87,West,270,0.0,0.0,93,0.00,CLR,,0.00,WeatherDisplay:10.37,2013-06-18 07:02:00,
2013-06-18 03:07:00,70.0,67.9,29.87,South,180,0.0,0.0,93,0.00,CLR,,0.00,WeatherDisplay:10.37,2013-06-18 07:07:00,
2013-06-18 03:12:00,70.0,67.9,29.87,South,180,0.0,0.0,93,0.00,CLR,,0.00,WeatherDisplay:10.37,2013-06-18 07:12:00,
2013-06-18 03:17:00,69.8,68.0,29.87,South,180,0.0,0.0,94,0.00,CLR,,0.00,WeatherDisplay:10.37,2013-06-18 07:17:00,
2013-06-18 03:22:00,69.8,68.0,29.87,East,90,0.0,0.0,94,0.00,CLR,,0.00,WeatherDisplay:10.37,2013-06-18 07:22:00,
2013-06-18 03:27:00,69.8,68.3,29.86,West,270,0.0,0.0,95,0.00,CLR,,0.00,WeatherDisplay:10.37,2013-06-18 07:27:00,
2013-06-18 03:32:00,69.8,68.3,29.86,South,180,1.1,0.0,95,0.00,CLR,,0.00,WeatherDisplay:10.37,2013-06-18 07:32:00,
2013-06-18 03:37:00,69.6,68.1,29.86,South,180,0.0,0.0,95,0.00,CLR,,0.00,WeatherDisplay:10.37,2013-06-18 07:37:00,
2013-06-18 03:42:00,69.8,68.3,29.86,South,180,1.1,0.0,95,0.00,CLR,,0.00,WeatherDisplay:10.37,2013-06-18 07:42:00,
2013-06-18 03:47:00,69.6,68.1,29.86,SW,225,1.1,0.0,95,0.00,CLR,,0.00,WeatherDisplay:10.37,2013-06-18 07:47:00,
2013-06-18 03:52:00,69.6,68.1,29.85,West,270,0.0,0.0,95,0.00,CLR,,0.00,WeatherDisplay:10.37,2013-06-18 07:52:00,
2013-06-18 03:57:00,69.6,68.1,29.86,West,270,1.1,0.0,95,0.00,CLR,,0.00,WeatherDisplay:10.37,2013-06-18 07:57:00,
2013-06-18 04:02:00,69.6,68.1,29.86,West,270,0.0,0.0,95,0.00,CLR,,0.00,WeatherDisplay:10.37,2013-06-18 08:02:00,
2013-06-18 04:07:00,69.6,68.1,29.86,West,270,0.0,0.0,95,0.00,CLR,,0.00,WeatherDisplay:10.37,2013-06-18 08:07:00,
2013-06-18 04:12:00,69.4,67.6,29.85,South,180,0.0,0.0,94,0.00,CLR,,0.00,WeatherDisplay:10.37,2013-06-18 08:12:00,
2013-06-18 04:17:00,69.4,67.9,29.85,SW,225,1.1,0.0,95,0.00,CLR,,0.00,WeatherDisplay:10.37,2013-06-18 08:17:00,
2013-06-18 04:22:00,69.4,67.9,29.85,SW,225,0.0,0.0,95,0.00,CLR,,0.00,WeatherDisplay:10.37,2013-06-18 08:22:00,
2013-06-18 04:27:00,69.4,67.9,29.85,SW,225,1.1,0.0,95,0.00,CLR,,0.00,WeatherDisplay:10.37,2013-06-18 08:27:00,
2013-06-18 04:32:00,69.4,67.9,29.85,West,270,1.1,0.0,95,0.00,CLR,,0.00,WeatherDisplay:10.37,2013-06-18 08:32:00,
2013-06-18 04:37:00,69.3,67.8,29.85,West,270,1.1,0.0,95,0.00,CLR,,0.00,WeatherDisplay:10.37,2013-06-18 08:37:00,
2013-06-18 04:42:00,69.3,67.8,29.85,West,270,0.0,0.0,95,0.00,CLR,,0.00,WeatherDisplay:10.37,2013-06-18 08:42:00,
2013-06-18 04:47:00,69.3,68.1,29.85,North,0,0.0,0.0,96,0.00,CLR,,0.00,WeatherDisplay:10.37,2013-06-18 08:47:00,
2013-06-18 04:52:00,69.3,68.1,29.85,North,0,0.0,0.0,96,0.00,CLR,,0.00,WeatherDisplay:10.37,2013-06-18 08:52:00,
2013-06-18 04:57:00,69.1,67.9,29.85,East,90,1.1,0.0,96,0.00,CLR,,0.00,WeatherDisplay:10.37,2013-06-18 08:57:00,
2013-06-18 05:02:00,69.1,67.9,29.85,West,270,1.1,0.0,96,0.00,CLR,,0.00,WeatherDisplay:10.37,2013-06-18 09:02:00,
2013-06-18 05:07:00,68.9,67.7,29.85,SE,135,1.6,1.6,96,0.00,CLR,,0.00,WeatherDisplay:10.37,2013-06-18 09:07:00,
2013-06-18 05:12:00,68.9,68.0,29.85,SE,135,1.1,0.0,97,0.00,CLR,,0.00,WeatherDisplay:10.37,2013-06-18 09:12:00,
2013-06-18 05:17:00,68.9,68.0,29.85,SE,135,0.0,0.0,97,0.00,CLR,,0.00,WeatherDisplay:10.37,2013-06-18 09:17:00,
2013-06-18 05:22:00,68.9,68.0,29.85,SE,135,0.0,0.0,97,0.00,CLR,,0.00,WeatherDisplay:10.37,2013-06-18 09:22:00,
2013-06-18 05:27:00,68.7,67.8,29.85,SE,135,0.0,0.0,97,0.00,CLR,,0.00,WeatherDisplay:10.37,2013-06-18 09:27:00,
2013-06-18 05:32:00,68.7,67.8,29.85,SE,135,1.1,0.0,97,0.00,CLR,,0.00,WeatherDisplay:10.37,2013-06-18 09:32:00,
2013-06-18 05:37:00,68.7,67.8,29.85,SE,135,1.1,0.0,97,0.00,CLR,,0.00,WeatherDisplay:10.37,2013-06-18 09:37:00,
2013-06-18 05:42:00,68.7,67.8,29.85,SE,135,1.1,0.0,97,0.00,CLR,,0.00,WeatherDisplay:10.37,2013-06-18 09:42:00,
2013-06-18 05:47:00,68.7,67.8,29.85,SE,135,0.0,0.0,97,0.00,CLR,,0.00,WeatherDisplay:10.37,2013-06-18 09:47:00,
2013-06-18 05:52:00,68.5,67.7,29.86,SE,135,0.0,0.0,97,0.00,CLR,,0.00,WeatherDisplay:10.37,2013-06-18 09:52:00,
2013-06-18 05:57:00,68.5,67.7,29.86,SE,135,0.0,0.0,97,0.00,CLR,,0.00,WeatherDisplay:10.37,2013-06-18 09:57:00,
2013-06-18 06:02:00,68.5,67.7,29.86,SE,135,0.0,0.0,97,0.00,FEW,,0.00,WeatherDisplay:10.37,2013-06-18 10:02:00,
2013-06-18 06:07:00,68.5,67.7,29.86,SE,135,1.1,0.0,97,0.00,FEW,,0.00,WeatherDisplay:10.37,2013-06-18 10:07:00,
2013-06-18 06:12:00,68.5,68.0,29.86,SE,135,0.0,0.0,98,0.00,FEW,,0.00,WeatherDisplay:10.37,2013-06-18 10:12:00,
2013-06-18 06:17:00,68.5,68.0,29.86,SE,135,0.0,0.0,98,0.00,FEW,,0.00,WeatherDisplay:10.37,2013-06-18 10:17:00,
2013-06-18 06:22:00,68.5,68.0,29.86,SE,135,0.0,0.0,98,0.00,FEW,,0.00,WeatherDisplay:10.37,2013-06-18 10:22:00,
2013-06-18 06:27:00,68.7,68.1,29.86,North,0,0.7,0.0,98,0.00,FEW,,0.00,WeatherDisplay:10.37,2013-06-18 10:27:00,
2013-06-18 06:32:00,68.9,68.3,29.86,North,0,0.0,0.0,98,0.00,FEW,,0.00,WeatherDisplay:10.37,2013-06-18 10:32:00,
2013-06-18 06:37:00,69.1,68.5,29.86,North,0,1.1,0.0,98,0.00,FEW,,0.00,WeatherDisplay:10.37,2013-06-18 10:37:00,
2013-06-18 06:42:00,69.1,68.2,29.86,North,0,0.0,0.0,97,0.00,FEW,,0.00,WeatherDisplay:10.37,2013-06-18 10:42:00,
2013-06-18 06:47:00,69.3,68.4,29.87,North,0,0.0,0.0,97,0.00,FEW,,0.00,WeatherDisplay:10.37,2013-06-18 10:47:00,
2013-06-18 06:52:00,69.4,68.6,29.86,North,0,0.0,0.0,97,0.00,FEW,,0.00,WeatherDisplay:10.37,2013-06-18 10:52:00,
2013-06-18 06:57:00,69.6,68.4,29.86,North,0,0.0,0.0,96,0.00,FEW,,0.00,WeatherDisplay:10.37,2013-06-18 10:57:00,
2013-06-18 07:02:00,69.8,68.6,29.86,North,0,1.1,0.0,96,0.00,BKN,,0.00,WeatherDisplay:10.37,2013-06-18 11:02:00,
2013-06-18 07:07:00,70.0,68.8,29.86,North,0,0.0,0.0,96,0.00,BKN,,0.00,WeatherDisplay:10.37,2013-06-18 11:07:00,
2013-06-18 07:12:00,70.2,68.7,29.87,North,0,1.1,0.0,95,0.00,BKN,,0.00,WeatherDisplay:10.37,2013-06-18 11:12:00,
2013-06-18 07:17:00,70.3,68.8,29.87,North,0,0.0,0.0,95,0.00,BKN,,0.00,WeatherDisplay:10.37,2013-06-18 11:17:00,
2013-06-18 07:22:00,70.3,68.5,29.87,North,0,0.0,0.0,94,0.00,BKN,,0.00,WeatherDisplay:10.37,2013-06-18 11:22:00,
2013-06-18 07:27:00,70.5,68.7,29.87,North,0,0.0,0.0,94,0.00,BKN,,0.00,WeatherDisplay:10.37,2013-06-18 11:27:00,
2013-06-18 07:32:00,70.7,68.6,29.87,North,0,0.0,0.0,93,0.00,BKN,,0.00,WeatherDisplay:10.37,2013-06-18 11:32:00,
2013-06-18 07:37:00,70.9,68.4,29.87,North,0,0.0,0.0,92,0.00,BKN,,0.00,WeatherDisplay:10.37,2013-06-18 11:37:00,
2013-06-18 07:42:00,71.1,68.6,29.86,North,0,0.0,0.0,92,0.00,BKN,,0.00,WeatherDisplay:10.37,2013-06-18 11:42:00,
2013-06-18 07:47:00,71.4,68.7,29.86,North,0,0.0,0.0,91,0.00,BKN,,0.00,WeatherDisplay:10.37,2013-06-18 11:47:00,
2013-06-18 07:53:00,71.6,68.5,29.86,North,0,0.0,0.0,90,0.00,BKN,,0.00,WeatherDisplay:10.37,2013-06-18 11:53:00,
2013-06-18 07:58:00,72.0,68.9,29.86,North,0,0.0,0.0,90,0.00,BKN,,0.00,WeatherDisplay:10.37,2013-06-18 11:58:00,
2013-06-18 08:03:00,72.7,68.9,29.87,NE,45,1.1,1.1,88,0.00,FEW,,0.00,WeatherDisplay:10.37,2013-06-18 12:03:00,
2013-06-18 08:08:00,74.8,70.7,29.87,West,270,0.0,0.0,87,0.00,FEW,,0.00,WeatherDisplay:10.37,2013-06-18 12:08:00,
2013-06-18 08:13:00,77.2,70.5,29.87,West,270,1.1,1.1,80,0.00,FEW,,0.00,WeatherDisplay:10.37,2013-06-18 12:13:00,
2013-06-18 08:18:00,78.1,68.3,29.87,East,90,3.5,3.5,72,0.00,FEW,,0.00,WeatherDisplay:10.37,2013-06-18 12:18:00,
2013-06-18 08:23:00,75.7,67.2,29.87,East,90,3.5,3.5,75,0.00,FEW,,0.00,WeatherDisplay:10.37,2013-06-18 12:23:00,
2013-06-18 08:28:00,74.8,67.9,29.87,East,90,1.1,0.0,79,0.00,FEW,,0.00,WeatherDisplay:10.37,2013-06-18 12:28:00,
2013-06-18 08:33:00,74.7,68.4,29.87,NW,315,1.1,0.0,81,0.00,FEW,,0.00,WeatherDisplay:10.37,2013-06-18 12:33:00,
2013-06-18 08:38:00,74.7,68.8,29.87,NW,315,0.0,0.0,82,0.00,FEW,,0.00,WeatherDisplay:10.37,2013-06-18 12:38:00,
2013-06-18 08:43:00,74.3,68.1,29.87,SE,135,1.1,0.0,81,0.00,FEW,,0.00,WeatherDisplay:10.37,2013-06-18 12:43:00,
2013-06-18 08:48:00,73.8,68.3,29.87,SE,135,1.1,0.0,83,0.00,FEW,,0.00,WeatherDisplay:10.37,2013-06-18 12:48:00,
2013-06-18 08:53:00,73.8,68.6,29.87,SE,135,1.1,0.0,84,0.00,FEW,,0.00,WeatherDisplay:10.37,2013-06-18 12:53:00,
2013-06-18 08:58:00,73.6,68.4,29.88,SE,135,0.0,0.0,84,0.00,FEW,,0.00,WeatherDisplay:10.37,2013-06-18 12:58:00,
2013-06-18 09:03:00,73.2,68.4,29.88,North,0,1.1,0.0,85,0.00,BKN,,0.00,WeatherDisplay:10.37,2013-06-18 13:03:00,
2013-06-18 09:08:00,73.0,68.6,29.88,North,0,0.0,0.0,86,0.00,BKN,,0.00,WeatherDisplay:10.37,2013-06-18 13:08:00,
2013-06-18 09:13:00,72.7,68.6,29.88,East,90,1.1,0.0,87,0.00,BKN,,0.00,WeatherDisplay:10.37,2013-06-18 13:13:00,
2013-06-18 09:18:00,72.3,68.6,29.88,East,90,0.0,0.0,88,0.00,BKN,,0.00,WeatherDisplay:10.37,2013-06-18 13:18:00,
2013-06-18 09:23:00,72.3,68.9,29.88,East,90,1.1,1.1,89,0.00,BKN,,0.00,WeatherDisplay:10.37,2013-06-18 13:23:00,
2013-06-18 09:28:00,71.8,69.0,29.88,SE,135,2.3,2.3,91,0.00,BKN,,0.00,WeatherDisplay:10.37,2013-06-18 13:28:00,
2013-06-18 09:33:00,71.6,69.2,29.88,SW,225,1.1,0.0,92,0.00,BKN,,0.00,WeatherDisplay:10.37,2013-06-18 13:33:00,
2013-06-18 09:38:00,71.4,69.0,29.88,East,90,1.1,0.0,92,0.00,BKN,,0.00,WeatherDisplay:10.37,2013-06-18 13:38:00,
2013-06-18 09:43:00,71.4,69.0,29.88,East,90,1.1,0.0,92,0.00,BKN,,0.00,WeatherDisplay:10.37,2013-06-18 13:43:00,
2013-06-18 09:48:00,71.4,69.0,29.87,East,90,1.1,0.0,92,0.00,BKN,,0.00,WeatherDisplay:10.37,2013-06-18 13:48:00,
2013-06-18 09:53:00,71.2,68.8,29.87,East,90,2.3,2.3,92,0.00,BKN,,0.00,WeatherDisplay:10.37,2013-06-18 13:53:00,
2013-06-18 09:58:00,71.2,68.8,29.87,South,180,2.3,2.3,92,0.00,BKN,,0.00,WeatherDisplay:10.37,2013-06-18 13:58:00,
2013-06-18 10:03:00,71.2,68.8,29.87,South,180,0.0,0.0,92,0.00,FEW,,0.00,WeatherDisplay:10.37,2013-06-18 14:03:00,
2013-06-18 10:08:00,71.4,69.0,29.87,East,90,1.1,0.0,92,0.00,FEW,,0.00,WeatherDisplay:10.37,2013-06-18 14:08:00,
2013-06-18 10:13:00,71.6,69.2,29.87,East,90,2.3,2.3,92,0.00,FEW,,0.00,WeatherDisplay:10.37,2013-06-18 14:13:00,
2013-06-18 10:18:00,71.6,69.2,29.86,NE,45,2.3,2.3,92,0.00,FEW,,0.00,WeatherDisplay:10.37,2013-06-18 14:18:00,
2013-06-18 10:23:00,72.1,69.4,29.86,SE,135,0.0,0.0,91,0.00,FEW,,0.00,WeatherDisplay:10.37,2013-06-18 14:23:00,
2013-06-18 10:28:00,72.7,69.6,29.86,NW,315,0.0,0.0,90,0.00,FEW,,0.00,WeatherDisplay:10.37,2013-06-18 14:28:00,
2013-06-18 10:33:00,73.0,69.6,29.87,SW,225,0.0,0.0,89,0.00,FEW,,0.00,WeatherDisplay:10.37,2013-06-18 14:33:00,
2013-06-18 10:38:00,73.2,69.1,29.87,NW,315,1.1,0.0,87,0.00,FEW,,0.00,WeatherDisplay:10.37,2013-06-18 14:38:00,
2013-06-18 10:43:00,73.2,69.5,29.86,West,270,1.1,0.0,88,0.00,FEW,,0.00,WeatherDisplay:10.37,2013-06-18 14:43:00,
2013-06-18 10:48:00,73.2,69.5,29.86,West,270,0.0,0.0,88,0.00,FEW,,0.00,WeatherDisplay:10.37,2013-06-18 14:48:00,
2013-06-18 10:53:00,73.4,69.3,29.86,South,180,0.7,0.0,87,0.00,FEW,,0.00,WeatherDisplay:10.37,2013-06-18 14:53:00,
2013-06-18 10:58:00,73.4,69.0,29.86,SW,225,1.6,0.0,86,0.00,FEW,,0.00,WeatherDisplay:10.37,2013-06-18 14:58:00,
2013-06-18 11:03:00,73.2,68.8,29.86,SW,225,1.1,0.0,86,0.00,OVC,,0.00,WeatherDisplay:10.37,2013-06-18 15:03:00,
2013-06-18 11:08:00,73.2,69.1,29.86,SW,225,0.0,0.0,87,0.00,OVC,,0.00,WeatherDisplay:10.37,2013-06-18 15:08:00,
2013-06-18 11:13:00,73.2,69.5,29.86,SW,225,0.0,0.0,88,0.00,OVC,,0.00,WeatherDisplay:10.37,2013-06-18 15:13:00,
2013-06-18 11:18:00,73.6,69.8,29.86,SW,225,0.0,0.0,88,0.00,OVC,,0.00,WeatherDisplay:10.37,2013-06-18 15:18:00,
2013-06-18 11:23:00,73.6,69.8,29.86,West,270,0.0,0.0,88,0.00,OVC,,0.00,WeatherDisplay:10.37,2013-06-18 15:23:00,
2013-06-18 11:28:00,73.6,69.5,29.86,North,0,0.0,0.0,87,0.00,OVC,,0.00,WeatherDisplay:10.37,2013-06-18 15:28:00,
2013-06-18 11:33:00,73.6,69.5,29.86,North,0,0.0,0.0,87,0.00,OVC,,0.00,WeatherDisplay:10.37,2013-06-18 15:33:00,
2013-06-18 11:38:00,73.6,69.5,29.86,NE,45,1.1,0.0,87,0.00,OVC,,0.00,WeatherDisplay:10.37,2013-06-18 15:38:00,
2013-06-18 11:43:00,73.6,69.5,29.86,SE,135,1.1,0.0,87,0.00,OVC,,0.00,WeatherDisplay:10.37,2013-06-18 15:43:00,
2013-06-18 11:48:00,73.6,70.1,29.86,South,180,1.1,0.0,89,0.00,OVC,,0.00,WeatherDisplay:10.37,2013-06-18 15:48:00,
2013-06-18 11:53:00,73.4,70.0,29.86,North,0,2.3,2.3,89,0.00,OVC,,0.00,WeatherDisplay:10.37,2013-06-18 15:53:00,
2013-06-18 11:58:00,73.2,69.8,29.86,NW,315,0.0,0.0,89,0.00,OVC,,0.00,WeatherDisplay:10.37,2013-06-18 15:58:00,
2013-06-18 12:03:00,73.4,70.3,29.86,NE,45,1.1,0.0,90,0.00,BKN,,0.00,WeatherDisplay:10.37,2013-06-18 16:03:00,
2013-06-18 12:08:00,73.6,70.5,29.86,West,270,0.0,0.0,90,0.00,BKN,,0.00,WeatherDisplay:10.37,2013-06-18 16:08:00,
2013-06-18 12:13:00,73.6,70.1,29.87,West,270,1.1,0.0,89,0.00,BKN,,0.00,WeatherDisplay:10.37,2013-06-18 16:13:00,
2013-06-18 12:18:00,73.8,70.6,29.87,NW,315,1.1,0.0,90,0.00,BKN,,0.00,WeatherDisplay:10.37,2013-06-18 16:18:00,
2013-06-18 12:23:00,73.6,70.5,29.86,West,270,1.1,0.0,90,0.00,BKN,,0.00,WeatherDisplay:10.37,2013-06-18 16:23:00,
2013-06-18 12:28:00,73.4,70.0,29.86,NW,315,0.0,0.0,89,0.00,BKN,,0.00,WeatherDisplay:10.37,2013-06-18 16:28:00,
2013-06-18 12:33:00,73.2,69.5,29.86,NW,315,0.0,0.0,88,0.00,BKN,,0.00,WeatherDisplay:10.37,2013-06-18 16:33:00,
2013-06-18 12:38:00,73.0,69.6,29.87,NW,315,0.0,0.0,89,0.00,BKN,,0.00,WeatherDisplay:10.37,2013-06-18 16:38:00,
2013-06-18 12:43:00,72.7,69.6,29.87,West,270,1.1,0.0,90,0.00,BKN,,0.00,WeatherDisplay:10.37,2013-06-18 16:43:00,
2013-06-18 12:48:00,72.5,70.0,29.86,SW,225,0.0,0.0,92,0.00,BKN,,0.00,WeatherDisplay:10.37,2013-06-18 16:48:00,
2013-06-18 12:53:00,72.5,70.4,29.86,West,270,0.0,0.0,93,0.00,BKN,,0.00,WeatherDisplay:10.37,2013-06-18 16:53:00,
2013-06-18 12:58:00,72.5,70.4,29.86,West,270,0.0,0.0,93,0.01,RA,,0.01,WeatherDisplay:10.37,2013-06-18 16:58:00,
2013-06-18 13:03:00,72.3,70.5,29.86,West,270,2.3,2.3,94,0.01,RA,,0.01,WeatherDisplay:10.37,2013-06-18 17:03:00,
2013-06-18 13:08:00,72.1,70.3,29.86,West,270,2.3,2.3,94,0.01,BKN,,0.01,WeatherDisplay:10.37,2013-06-18 17:08:00,
2013-06-18 13:13:00,72.0,70.4,29.86,West,270,2.3,2.3,95,0.01,BKN,,0.01,WeatherDisplay:10.37,2013-06-18 17:13:00,
2013-06-18 13:18:00,71.8,70.6,29.86,West,270,2.3,2.3,96,0.01,-RA,,0.01,WeatherDisplay:10.37,2013-06-18 17:18:00,
2013-06-18 13:23:00,71.4,70.2,29.86,West,270,1.1,0.0,96,0.02,-RA,,0.02,WeatherDisplay:10.37,2013-06-18 17:23:00,
2013-06-18 13:28:00,71.2,70.3,29.86,West,270,1.1,0.0,97,0.04,-RA,,0.04,WeatherDisplay:10.37,2013-06-18 17:28:00,
2013-06-18 13:33:00,71.2,70.3,29.86,West,270,1.1,0.0,97,0.04,-RA,,0.04,WeatherDisplay:10.37,2013-06-18 17:33:00,
2013-06-18 13:38:00,71.2,70.6,29.86,West,270,1.1,0.0,98,0.05,-RA,,0.05,WeatherDisplay:10.37,2013-06-18 17:38:00,
2013-06-18 13:43:00,71.2,70.9,29.86,West,270,1.1,0.0,99,0.06,-RA,,0.06,WeatherDisplay:10.37,2013-06-18 17:43:00,
2013-06-18 13:48:00,71.2,70.9,29.86,West,270,1.1,1.1,99,0.07,-RA,,0.07,WeatherDisplay:10.37,2013-06-18 17:48:00,
2013-06-18 13:53:00,71.2,70.9,29.86,West,270,1.1,0.0,99,0.07,-RA,,0.07,WeatherDisplay:10.37,2013-06-18 17:53:00,
2013-06-18 13:58:00,71.1,70.8,29.85,NW,315,1.1,0.0,99,0.06,-RA,,0.07,WeatherDisplay:10.37,2013-06-18 17:58:00,
2013-06-18 14:03:00,71.1,70.8,29.85,West,270,1.1,0.0,99,0.07,-RA,,0.08,WeatherDisplay:10.37,2013-06-18 18:03:00,
2013-06-18 14:08:00,71.2,70.9,29.85,West,270,1.1,0.0,99,0.07,-RA,,0.08,WeatherDisplay:10.37,2013-06-18 18:08:00,
2013-06-18 14:13:00,71.2,70.9,29.85,West,270,1.1,1.1,99,0.07,-RA,,0.08,WeatherDisplay:10.37,2013-06-18 18:13:00,
2013-06-18 14:18:00,71.2,70.9,29.85,West,270,1.1,0.0,99,0.08,-RA,,0.09,WeatherDisplay:10.37,2013-06-18 18:18:00,
2013-06-18 14:23:00,71.2,70.9,29.84,West,270,1.1,0.0,99,0.07,-RA,,0.09,WeatherDisplay:10.37,2013-06-18 18:23:00,
2013-06-18 14:28:00,71.4,71.1,29.83,West,270,1.1,1.1,99,0.06,-RA,,0.09,WeatherDisplay:10.37,2013-06-18 18:28:00,
2013-06-18 14:33:00,71.4,70.8,29.84,West,270,1.1,1.1,98,0.06,-RA,,0.09,WeatherDisplay:10.37,2013-06-18 18:33:00,
2013-06-18 14:38:00,71.4,70.8,29.84,West,270,1.1,0.0,98,0.05,-RA,,0.09,WeatherDisplay:10.37,2013-06-18 18:38:00,
2013-06-18 14:43:00,71.8,70.9,29.83,SW,225,0.0,0.0,97,0.04,-RA,,0.09,WeatherDisplay:10.37,2013-06-18 18:43:00,
2013-06-18 14:48:00,72.1,71.2,29.83,West,270,1.1,0.0,97,0.02,-RA,,0.09,WeatherDisplay:10.37,2013-06-18 18:48:00,
2013-06-18 14:53:00,72.3,71.1,29.83,West,270,0.0,0.0,96,0.02,-RA,,0.09,WeatherDisplay:10.37,2013-06-18 18:53:00,
2013-06-18 14:58:00,72.5,71.3,29.83,SW,225,0.0,0.0,96,0.02,-RA,,0.09,WeatherDisplay:10.37,2013-06-18 18:58:00,
2013-06-18 15:03:00,72.7,71.5,29.83,North,0,0.0,0.0,96,0.01,-RA,,0.09,WeatherDisplay:10.37,2013-06-18 19:03:00,
2013-06-18 15:08:00,72.7,71.2,29.83,West,270,0.0,0.0,95,0.01,-RA,,0.09,WeatherDisplay:10.37,2013-06-18 19:08:00,
2013-06-18 15:13:00,72.5,70.7,29.83,West,270,0.0,0.0,94,0.01,-RA,,0.09,WeatherDisplay:10.37,2013-06-18 19:13:00,
2013-06-18 15:18:00,72.3,70.5,29.83,West,270,0.0,0.0,94,0.01,SCT,,0.09,WeatherDisplay:10.37,2013-06-18 19:18:00,
2013-06-18 15:23:00,72.3,70.5,29.83,West,270,0.0,0.0,94,0.00,SCT,,0.09,WeatherDisplay:10.37,2013-06-18 19:23:00,
2013-06-18 15:28:00,72.1,70.6,29.83,NE,45,0.0,0.0,95,0.00,SCT,,0.09,WeatherDisplay:10.37,2013-06-18 19:28:00,
2013-06-18 15:33:00,72.3,70.8,29.83,South,180,0.0,0.0,95,0.00,SCT,,0.09,WeatherDisplay:10.37,2013-06-18 19:33:00,
2013-06-18 15:38:00,72.5,71.0,29.82,South,180,0.0,0.0,95,0.00,SCT,,0.09,WeatherDisplay:10.37,2013-06-18 19:38:00,
2013-06-18 15:43:00,72.5,70.7,29.82,SE,135,0.0,0.0,94,0.00,SCT,,0.09,WeatherDisplay:10.37,2013-06-18 19:43:00,
2013-06-18 15:48:00,72.3,70.8,29.82,SW,225,0.0,0.0,95,0.00,SCT,,0.09,WeatherDisplay:10.37,2013-06-18 19:48:00,
2013-06-18 15:53:00,72.5,71.0,29.81,SE,135,1.1,1.1,95,0.00,SCT,,0.09,WeatherDisplay:10.37,2013-06-18 19:53:00,
2013-06-18 15:58:00,72.3,71.1,29.81,NE,45,1.1,0.0,96,0.00,SCT,,0.09,WeatherDisplay:10.37,2013-06-18 19:58:00,
2013-06-18 16:03:00,72.3,71.1,29.80,SE,135,0.0,0.0,96,0.00,OVC,,0.09,WeatherDisplay:10.37,2013-06-18 20:03:00,
2013-06-18 16:08:00,72.1,70.9,29.80,SW,225,0.0,0.0,96,0.00,OVC,,0.09,WeatherDisplay:10.37,2013-06-18 20:08:00,
2013-06-18 16:13:00,72.0,70.8,29.80,SW,225,0.0,0.0,96,0.00,OVC,,0.09,WeatherDisplay:10.37,2013-06-18 20:13:00,
2013-06-18 16:18:00,71.8,70.6,29.80,North,0,0.0,0.0,96,0.00,OVC,,0.09,WeatherDisplay:10.37,2013-06-18 20:18:00,
2013-06-18 16:23:00,71.4,70.2,29.80,East,90,0.0,0.0,96,0.00,OVC,,0.09,WeatherDisplay:10.37,2013-06-18 20:23:00,
2013-06-18 16:28:00,71.4,70.5,29.80,SE,135,0.0,0.0,97,0.01,RA,,0.11,WeatherDisplay:10.37,2013-06-18 20:28:00,
2013-06-18 16:33:00,71.2,70.3,29.80,East,90,0.0,0.0,97,0.01,RA,,0.11,WeatherDisplay:10.37,2013-06-18 20:33:00,
2013-06-18 16:38:00,71.2,70.6,29.81,West,270,0.0,0.0,98,0.01,OVC,,0.11,WeatherDisplay:10.37,2013-06-18 20:38:00,
2013-06-18 16:43:00,71.2,70.6,29.81,West,270,0.0,0.0,98,0.01,OVC,,0.11,WeatherDisplay:10.37,2013-06-18 20:43:00,
2013-06-18 16:48:00,71.4,70.8,29.80,West,270,0.0,0.0,98,0.01,OVC,,0.11,WeatherDisplay:10.37,2013-06-18 20:48:00,
2013-06-18 16:53:00,71.4,70.8,29.81,West,270,0.0,0.0,98,0.01,OVC,,0.11,WeatherDisplay:10.37,2013-06-18 20:53:00,
2013-06-18 16:58:00,71.4,70.5,29.80,SE,135,0.0,0.7,97,0.01,OVC,,0.11,WeatherDisplay:10.37,2013-06-18 20:58:00,
2013-06-18 17:03:00,71.2,70.3,29.81,West,270,1.1,0.0,97,0.01,BKN,,0.11,WeatherDisplay:10.37,2013-06-18 21:03:00,
2013-06-18 17:08:00,71.2,70.3,29.81,West,270,0.0,0.0,97,0.01,BKN,,0.11,WeatherDisplay:10.37,2013-06-18 21:08:00,
2013-06-18 17:13:00,71.4,70.8,29.81,West,270,0.0,0.0,98,0.01,BKN,,0.11,WeatherDisplay:10.37,2013-06-18 21:13:00,
2013-06-18 17:18:00,71.6,71.0,29.81,SW,225,1.1,0.0,98,0.01,BKN,,0.11,WeatherDisplay:10.37,2013-06-18 21:18:00,
2013-06-18 17:23:00,71.6,70.7,29.80,East,90,1.1,0.0,97,0.01,BKN,,0.11,WeatherDisplay:10.37,2013-06-18 21:23:00,
2013-06-18 17:28:00,71.4,70.2,29.79,East,90,2.3,2.3,96,0.00,BKN,,0.11,WeatherDisplay:10.37,2013-06-18 21:28:00,
2013-06-18 17:33:00,71.8,70.9,29.78,East,90,1.1,1.1,97,0.00,BKN,,0.11,WeatherDisplay:10.37,2013-06-18 21:33:00,
2013-06-18 17:38:00,72.1,71.2,29.77,East,90,0.0,0.0,97,0.00,BKN,,0.11,WeatherDisplay:10.37,2013-06-18 21:38:00,
2013-06-18 17:43:00,72.3,71.4,29.79,SW,225,1.1,1.1,97,0.00,BKN,,0.11,WeatherDisplay:10.37,2013-06-18 21:43:00,
2013-06-18 17:48:00,72.5,71.3,29.79,East,90,1.1,1.1,96,0.00,BKN,,0.11,WeatherDisplay:10.37,2013-06-18 21:48:00,
2013-06-18 17:53:00,72.9,71.0,29.79,SE,135,1.1,1.1,94,0.00,BKN,,0.11,WeatherDisplay:10.37,2013-06-18 21:53:00,
2013-06-18 17:58:00,73.4,71.6,29.80,West,270,1.1,0.0,94,0.00,BKN,,0.11,WeatherDisplay:10.37,2013-06-18 21:58:00,
2013-06-18 18:03:00,73.8,71.3,29.81,West,270,1.1,0.0,92,0.00,SCT,,0.11,WeatherDisplay:10.37,2013-06-18 22:03:00,
2013-06-18 18:08:00,73.8,71.3,29.81,West,270,1.1,0.0,92,0.00,SCT,,0.11,WeatherDisplay:10.37,2013-06-18 22:08:00,
2013-06-18 18:13:00,74.1,71.6,29.81,West,270,1.1,0.0,92,0.00,SCT,,0.11,WeatherDisplay:10.37,2013-06-18 22:13:00,
2013-06-18 18:18:00,74.1,71.6,29.81,SW,225,1.1,0.0,92,0.00,SCT,,0.11,WeatherDisplay:10.37,2013-06-18 22:18:00,
2013-06-18 18:23:00,74.1,71.3,29.81,East,90,1.1,0.0,91,0.00,SCT,,0.11,WeatherDisplay:10.37,2013-06-18 22:23:00,
2013-06-18 18:28:00,74.5,71.7,29.81,NW,315,0.0,0.0,91,0.00,SCT,,0.11,WeatherDisplay:10.37,2013-06-18 22:28:00,
2013-06-18 18:33:00,75.0,71.9,29.81,West,270,1.1,1.1,90,0.00,SCT,,0.11,WeatherDisplay:10.37,2013-06-18 22:33:00,
2013-06-18 18:38:00,74.7,71.2,29.81,SW,225,1.1,0.0,89,0.00,SCT,,0.11,WeatherDisplay:10.37,2013-06-18 22:38:00,
2013-06-18 18:43:00,74.7,71.2,29.80,East,90,1.1,1.1,89,0.00,SCT,,0.11,WeatherDisplay:10.37,2013-06-18 22:43:00,
2013-06-18 18:48:00,74.5,71.0,29.80,East,90,1.1,0.0,89,0.00,SCT,,0.11,WeatherDisplay:10.37,2013-06-18 22:48:00,
2013-06-18 18:53:00,74.7,71.5,29.80,SE,135,1.1,0.0,90,0.00,SCT,,0.11,WeatherDisplay:10.37,2013-06-18 22:53:00,
2013-06-18 18:58:00,74.7,71.5,29.81,East,90,1.1,0.0,90,0.00,SCT,,0.11,WeatherDisplay:10.37,2013-06-18 22:58:00,
2013-06-18 19:03:00,74.5,71.0,29.81,East,90,1.1,1.1,89,0.00,CLR,,0.11,WeatherDisplay:10.37,2013-06-18 23:03:00,
2013-06-18 19:08:00,74.1,71.0,29.81,SW,225,1.1,0.0,90,0.00,CLR,,0.11,WeatherDisplay:10.37,2013-06-18 23:08:00,
2013-06-18 19:13:00,73.9,71.1,29.81,SE,135,0.0,0.0,91,0.00,CLR,,0.11,WeatherDisplay:10.37,2013-06-18 23:13:00,
2013-06-18 19:18:00,73.6,70.8,29.81,SE,135,1.1,0.0,91,0.00,CLR,,0.11,WeatherDisplay:10.37,2013-06-18 23:18:00,
2013-06-18 19:23:00,73.6,71.1,29.81,SE,135,0.0,0.0,92,0.00,CLR,,0.11,WeatherDisplay:10.37,2013-06-18 23:23:00,
2013-06-18 19:28:00,73.2,71.1,29.81,West,270,0.0,0.0,93,0.00,CLR,,0.11,WeatherDisplay:10.37,2013-06-18 23:28:00,
2013-06-18 19:33:00,73.0,70.9,29.82,West,270,0.0,0.0,93,0.00,CLR,,0.11,WeatherDisplay:10.37,2013-06-18 23:33:00,
2013-06-18 19:38:00,72.7,70.9,29.81,East,90,1.1,0.0,94,0.00,CLR,,0.11,WeatherDisplay:10.37,2013-06-18 23:38:00,
2013-06-18 19:43:00,72.5,70.7,29.81,East,90,0.0,0.0,94,0.00,CLR,,0.11,WeatherDisplay:10.37,2013-06-18 23:43:00,
2013-06-18 19:48:00,72.3,70.8,29.81,East,90,0.0,0.0,95,0.00,CLR,,0.11,WeatherDisplay:10.37,2013-06-18 23:48:00,
2013-06-18 19:53:00,72.1,70.6,29.82,East,90,0.0,0.0,95,0.00,CLR,,0.11,WeatherDisplay:10.37,2013-06-18 23:53:00,
2013-06-18 19:58:00,72.1,70.9,29.82,East,90,0.0,0.0,96,0.00,CLR,,0.11,WeatherDisplay:10.37,2013-06-18 23:58:00,
2013-06-18 20:03:00,71.8,70.9,29.81,SW,225,1.1,0.0,97,0.00,FEW,,0.11,WeatherDisplay:10.37,2013-06-19 00:03:00,
2013-06-18 20:08:00,71.6,70.7,29.82,SW,225,0.0,0.0,97,0.00,FEW,,0.11,WeatherDisplay:10.37,2013-06-19 00:08:00,
2013-06-18 20:13:00,71.4,70.8,29.82,SW,225,0.0,0.0,98,0.00,FEW,,0.11,WeatherDisplay:10.37,2013-06-19 00:13:00,
2013-06-18 20:18:00,71.1,70.5,29.82,SW,225,0.0,0.0,98,0.00,FEW,,0.11,WeatherDisplay:10.37,2013-06-19 00:18:00,
2013-06-18 20:23:00,70.9,70.6,29.83,SW,225,0.0,0.0,99,0.00,FEW,,0.11,WeatherDisplay:10.37,2013-06-19 00:23:00,
2013-06-18 20:28:00,70.7,70.4,29.82,SE,135,1.1,0.0,99,0.00,FEW,,0.11,WeatherDisplay:10.37,2013-06-19 00:28:00,
2013-06-18 20:33:00,70.5,70.2,29.83,SE,135,0.0,0.0,99,0.00,FEW,,0.11,WeatherDisplay:10.37,2013-06-19 00:33:00,
2013-06-18 20:38:00,70.3,70.0,29.83,SE,135,1.1,0.0,99,0.00,FEW,,0.11,WeatherDisplay:10.37,2013-06-19 00:38:00,
2013-06-18 20:43:00,70.2,69.9,29.83,SE,135,1.1,0.0,99,0.00,FEW,,0.11,WeatherDisplay:10.37,2013-06-19 00:43:00,
2013-06-18 20:48:00,70.0,69.7,29.84,West,270,1.1,0.0,99,0.00,FEW,,0.11,WeatherDisplay:10.37,2013-06-19 00:48:00,
2013-06-18 20:53:00,70.0,69.7,29.84,West,270,1.1,0.0,99,0.00,FEW,,0.11,WeatherDisplay:10.37,2013-06-19 00:53:00,
2013-06-18 20:58:00,69.8,69.5,29.84,West,270,0.0,0.0,99,0.00,FEW,,0.11,WeatherDisplay:10.37,2013-06-19 00:58:00,
2013-06-18 21:03:00,69.6,69.3,29.84,West,270,1.1,0.0,99,0.00,CLR,,0.11,WeatherDisplay:10.37,2013-06-19 01:03:00,
2013-06-18 21:08:00,69.6,69.3,29.84,West,270,0.0,0.0,99,0.00,CLR,,0.11,WeatherDisplay:10.37,2013-06-19 01:08:00,
2013-06-18 21:13:00,69.6,69.3,29.84,West,270,0.0,0.0,99,0.00,CLR,,0.11,WeatherDisplay:10.37,2013-06-19 01:13:00,
2013-06-18 21:18:00,69.6,69.3,29.84,West,270,1.1,0.0,99,0.00,CLR,,0.11,WeatherDisplay:10.37,2013-06-19 01:18:00,
2013-06-18 21:23:00,69.4,69.1,29.85,West,270,0.0,0.0,99,0.00,CLR,,0.11,WeatherDisplay:10.37,2013-06-19 01:23:00,
2013-06-18 21:28:00,69.4,69.1,29.85,West,270,0.0,0.0,99,0.00,CLR,,0.11,WeatherDisplay:10.37,2013-06-19 01:28:00,
2013-06-18 21:33:00,69.4,69.1,29.85,West,270,1.1,0.0,99,0.00,CLR,,0.11,WeatherDisplay:10.37,2013-06-19 01:33:00,
2013-06-18 21:38:00,69.4,69.1,29.85,West,270,0.0,0.0,99,0.00,CLR,,0.11,WeatherDisplay:10.37,2013-06-19 01:38:00,
2013-06-18 21:43:00,69.4,69.1,29.85,West,270,0.0,0.0,99,0.00,CLR,,0.11,WeatherDisplay:10.37,2013-06-19 01:43:00,
2013-06-18 21:48:00,69.4,69.1,29.85,South,180,1.1,0.0,99,0.00,CLR,,0.11,WeatherDisplay:10.37,2013-06-19 01:48:00,
2013-06-18 21:53:00,69.4,69.1,29.85,SE,135,1.1,1.1,99,0.00,CLR,,0.11,WeatherDisplay:10.37,2013-06-19 01:53:00,
2013-06-18 21:58:00,69.6,69.3,29.85,East,90,1.1,0.0,99,0.00,CLR,,0.11,WeatherDisplay:10.37,2013-06-19 01:58:00,
2013-06-18 22:03:00,69.6,69.3,29.85,East,90,1.1,0.0,99,0.00,FEW,,0.11,WeatherDisplay:10.37,2013-06-19 02:03:00,
2013-06-18 22:08:00,69.6,69.3,29.86,East,90,0.0,0.0,99,0.00,FEW,,0.11,WeatherDisplay:10.37,2013-06-19 02:08:00,
2013-06-18 22:13:00,69.6,69.3,29.86,East,90,0.0,0.0,99,0.00,FEW,,0.11,WeatherDisplay:10.37,2013-06-19 02:13:00,
2013-06-18 22:18:00,69.6,69.3,29.86,SE,135,1.1,1.1,99,0.00,FEW,,0.11,WeatherDisplay:10.37,2013-06-19 02:18:00,
2013-06-18 22:23:00,69.6,69.3,29.87,East,90,2.3,2.3,99,0.00,FEW,,0.11,WeatherDisplay:10.37,2013-06-19 02:23:00,
2013-06-18 22:28:00,69.8,69.5,29.87,SE,135,2.3,2.3,99,0.00,FEW,,0.11,WeatherDisplay:10.37,2013-06-19 02:28:00,
2013-06-18 22:33:00,69.6,69.3,29.86,East,90,3.5,3.5,99,0.00,FEW,,0.11,WeatherDisplay:10.37,2013-06-19 02:33:00,
2013-06-18 22:38:00,69.6,69.3,29.87,West,270,2.3,2.3,99,0.00,FEW,,0.11,WeatherDisplay:10.37,2013-06-19 02:38:00,
2013-06-18 22:43:00,69.8,69.5,29.87,South,180,1.1,0.0,99,0.00,FEW,,0.11,WeatherDisplay:10.37,2013-06-19 02:43:00,
2013-06-18 22:48:00,69.8,69.5,29.87,East,90,1.1,0.0,99,0.00,FEW,,0.11,WeatherDisplay:10.37,2013-06-19 02:48:00,
2013-06-18 22:53:00,69.8,69.5,29.87,East,90,2.3,2.3,99,0.01,RA,,0.12,WeatherDisplay:10.37,2013-06-19 02:53:00,
2013-06-18 22:58:00,69.8,69.5,29.87,SE,135,2.3,2.3,99,0.01,RA,,0.12,WeatherDisplay:10.37,2013-06-19 02:58:00,
2013-06-18 23:03:00,69.6,69.3,29.88,SE,135,8.1,8.1,99,0.01,OVC,,0.12,WeatherDisplay:10.37,2013-06-19 03:03:00,
2013-06-18 23:08:00,69.1,68.8,29.88,SE,135,5.8,5.8,99,0.01,OVC,,0.12,WeatherDisplay:10.37,2013-06-19 03:08:00,
2013-06-18 23:13:00,68.4,67.5,29.88,North,0,4.6,4.6,97,0.07,RA,,0.18,WeatherDisplay:10.37,2013-06-19 03:13:00,
2013-06-18 23:18:00,67.8,67.5,29.89,SE,135,1.1,1.1,99,0.07,RA,,0.19,WeatherDisplay:10.37,2013-06-19 03:18:00,
2013-06-18 23:24:00,67.3,67.0,29.89,East,90,3.5,3.5,99,0.12,RA,,0.25,WeatherDisplay:10.37,2013-06-19 03:24:00,
2013-06-18 23:29:00,66.6,66.3,29.89,SE,135,4.6,0.0,99,0.17,RA,,0.27,WeatherDisplay:10.37,2013-06-19 03:29:00,
2013-06-18 23:34:00,66.2,65.9,29.89,North,0,1.1,0.0,99,0.19,RA,,0.30,WeatherDisplay:10.37,2013-06-19 03:34:00,
2013-06-18 23:39:00,66.2,65.9,29.89,East,90,1.1,0.0,99,0.19,RA,,0.31,WeatherDisplay:10.37,2013-06-19 03:39:00,
2013-06-18 23:44:00,66.0,65.7,29.89,NW,315,0.0,0.0,99,0.20,RA,,0.31,WeatherDisplay:10.37,2013-06-19 03:44:00,
2013-06-18 23:49:00,65.8,65.6,29.88,NW,315,1.1,0.0,99,0.21,RA,,0.32,WeatherDisplay:10.37,2013-06-19 03:49:00,
2013-06-18 23:54:00,65.8,65.6,29.89,ESE,112,1.1,1.1,99,0.20,RA,,0.32,WeatherDisplay:10.37,2013-06-19 03:54:00,
2013-06-18 23:59:00,65.8,65.6,29.89,SE,135,2.3,2.3,99,0.20,OVC,,0.32,WeatherDisplay:10.37,2013-06-19 03:59:00,